Volver al catálogo

PREFIRE-1

ActivoCienciaSSO
NORAD 59965·PAYLOAD·🇺🇸 United States

Lanzado Jun 5, 2024 desde Rocket Lab Launch Complex 1

Loading…

Próximos Pases (próximas 24 horas)

TLE

ActualizadoSource: Space-Track

Época: Sep 14, 2026, 10:14 UTC

1 59965U 24108A   26257.42669616  .00003645  00000-0  15164-3 0  9999
2 59965  97.5425  52.6747 0009629 290.9709  69.0497 15.24393811126181

Sigue PREFIRE-1 en tiempo real con AllMySat

Download on the App Store